Flag for Germany Weather past 2 weeks in Radebeul, Saxony, Germany

Now
76 °F

Scattered clouds.


Feels Like: 78 °F
Forecast: 64 / 89 °F
Wind: 2 mph from Northeast

Location: Dresden-Klotzsche

Current Time: Aug 29, 2015 at 5:03:13 PM

Latest Report: Aug 29, 2015 at 4:00 PM


Visibility: 28 mi

Pressure: 30.21 "Hg

Humidity: 57%

Dew point: 60 °F

Location of RadebeulLocation

Historic Weather in Radebeul — Graph

°F

Radebeul temperature yesterday

Maximum temperature yesterday: 75 °F (at 1:00 AM)
Minimum temperature yesterday: 59 °F (at 12:00 PM)
Average temperature yesterday: 64 °F

Past Weeks' High & Low Weather Summary

 TemperatureHumidityPressure
High94 °F (Aug 14, 6:00 PM)100% (Aug 17, 10:00 PM)30.31 "Hg (Aug 17, 10:00 PM)
Low51 °F (Aug 22, 6:00 AM)24% (Aug 14, 4:00 PM)29.64 "Hg (Aug 14, 9:00 PM)
Average66 °F72%29.99 "Hg
* Reported Aug 14 4:00 PM — Aug 29 4:00 PM, Radebeul, Weather by CustomWeather, © 2015

Note: Actual official high and low records may vary slightly from our data, if they occured in-between our weather recording intervals... More about our weather records

Advertising

Radebeul weather history for previous 24 hours

 ConditionsComfort  
Time TempWeatherWind HumidityBarometerVisibility
4:00 PM
Sat, Aug 29
76 °FScattered clouds.2 mph57%30.21 "Hg28 mi
3:00 PM74 °FPassing clouds.3 mph58%30.22 "Hg31 mi
2:00 PM73 °FPassing clouds.2 mph60%30.24 "Hg31 mi
1:00 PM71 °FScattered clouds.2 mph68%30.25 "Hg19 mi
12:00 PM68 °FPartly sunny.2 mph74%30.27 "Hg12 mi
10:00 AM62 °FFog.2 mph94%30.28 "Hg4 mi
9:00 AM61 °FFog.1 mph100%30.27 "Hg2 mi
8:00 AM60 °FFog.1 mph100%30.26 "Hg1 mi
7:00 AM58 °FFog.2 mph100%30.25 "Hg0 mi
6:00 AM58 °FFog.1 mph100%30.24 "Hg0 mi
4:00 AM59 °FFog.1 mph99%30.22 "Hg1 mi
3:00 AM60 °FFog.1 mph98%30.21 "Hg6 mi
2:00 AM60 °FFog.1 mph95%30.21 "Hg5 mi
1:00 AM62 °FPassing clouds.1 mph94%30.19 "Hg9 mi
10:00 PM
Fri, Aug 28
62 °FOvercast.1 mph93%30.16 "Hg12 mi
9:00 PM63 °FLow clouds.1 mph93%30.15 "Hg9 mi
8:00 PM62 °FLow clouds.1 mph94%30.12 "Hg11 mi
7:00 PM63 °FLow clouds.1 mph92%30.12 "Hg11 mi
6:00 PM63 °FLight rain. Low clouds.1 mph93%30.11 "Hg9 mi
Weather by CustomWeather, © 2015

See weather overviewHow to use our weather pages